Location: ????????
(55.6333°N, 37.7000°E)
Time: 11:25:47
(UTC+00:00)

Cosmos 1680 Rocket - Pass Details

Date: 19 May 2025
Orbit: 757 x 776 km, 74.1° (Epoch: 13 June)

Event Time Altitude Azimuth Distance (km) Brightness Sun altitude
Exits shadow 22:39:26 15° 223° (SW) 1,956 5.1 -12.8°
Maximum altitude 22:43:42 63° 302° (WNW) 852 3.8 -12.6°
Drops below altitude 10° 22:48:53 10° 24° (NNE) 2,305 7.5 -12.4°
Sets 22:51:17 0° 28° (NNE) 3,232 8.7 -12.2°
